Regional Weather Roundup
Issued by NWS

Home | Current Version | Previous Version | Text Only | Print | Product List | Glossary On
Versions: 1 2 3 4 5 6 7 8 9 10 11 12 13 14 15 16 17 18 19 20 21 22 23 24 25 26 27 28 29 30 31 32 33 34 35 36 37 38 39 40 41 42 43 44 45 46 47 48 49 50
418
ASUS44 KLUB 041410
RWRTX
WEST TEXAS WEATHER ROUNDUP
NATIONAL WEATHER SERVICE LUBBOCK TX
900 AM CDT WED MAY 04 2016

NOTE: "FAIR" INDICATES FEW OR NO CLOUDS BELOW 12,000 FEET WITH NO
SIGNIFICANT WEATHER AND/OR OBSTRUCTIONS TO VISIBILITY.

TXZ004-006>008-010-012-014-016-OKZ002-041500-
TEXAS PANHANDLE/OKLAHOMA PANHANDLE

CITY           SKY/WX    TMP DP  RH WIND       PRES   REMARKS
AMARILLO       SUNNY     54  38  54 NW14      30.22S
BORGER         SUNNY     53  39  59 W6        30.20R
CANADIAN       SUNNY     53  48  81 CALM      30.16S
DALHART        SUNNY     54  40  59 NW10      30.24R
DUMAS          SUNNY     53  41  65 NW8       30.22R
GUYMON         SUNNY     56  41  57 NW9       30.18S
HEREFORD       SUNNY     56  42  60 NW9       30.24S
PAMPA          SUNNY     55  43  63 W10       30.20S
PERRYTON       SUNNY     55  45  69 NW8       30.17S
$$

TXZ026-029-035-045-048-041500-
SOUTHERN PANHANDLE/SOUTH PLAINS/ROLLING PLAINS

CITY           SKY/WX    TMP DP  RH WIND       PRES   REMARKS
CHILDRESS      SUNNY     60  42  51 NW15      30.15S
SEMINOLE       SUNNY     59  45  60 NW7       30.25R
LUBBOCK        SUNNY     55  43  63 NW12      30.22R
PLAINVIEW      SUNNY     55  41  59 NW13      30.21R
SNYDER           N/A     59  48  67 NW7       30.20R
$$

TXZ052-054-060>062-072-078-127-140-154-169-041500-
PERMIAN BASIN/CONCHO VALLEY/BIG COUNTRY/EDWARDS PLATEAU

CITY           SKY/WX    TMP DP  RH WIND       PRES   REMARKS
ABILENE        SUNNY     59  54  83 NW10      30.17R
BIG SPRING     SUNNY     55  47  76 W5        30.24R
BROWNWOOD      SUNNY     57  57 100 NW5       30.15S
JUNCTION       SUNNY     58  48  69 W6        30.17R
MIDLAND        SUNNY     62  46  55 W6        30.21S
ODESSA         SUNNY     62  46  55 NW5       30.23R
SAN ANGELO     SUNNY     63  52  67 N3        30.18R
SONORA         SUNNY     61  52  72 CALM      30.23R
SWEETWATER     SUNNY     63  46  53 NW8       30.21R
WINK           SUNNY     58  45  62 N8        30.22R
$$

TXZ055-058-074-075-080-082-041500-
FAR WEST/SOUTHWEST MOUNTAINS/TRANS PECOS

CITY           SKY/WX    TMP DP  RH WIND       PRES   REMARKS
ALPINE         SUNNY     59  43  55 CALM      30.34R
DRYDEN           N/A     66  49  54 NE5       30.19R
EL PASO        SUNNY     64  36  35 E3        30.24R
FORT STOCKTON  SUNNY     62  48  60 W5        30.23R
GUADALUPE PASS SUNNY     62  34  35 NE14      30.32R
MARFA          SUNNY     60  43  53 NE7       30.31R
PECOS          SUNNY     57  44  61 N3        30.24R
PRESIDIO       FAIR      70  46  42 N9G18     30.20R
$$

TXZ014-016-019-021>030-083-041500
TEXAS TECH WEST TEXAS MESONET/TEXAS PANHANDLE/NORTHERN SOUTH PLAINS

CITY           SKY/WX    TMP DP  RH WIND       PRES   REMARKS
ABERNATHY 5ENE   N/A     56  45  65 NW10      30.25S
AMARILLO 9NNE    N/A     55  39  54 W9        30.24R
AMARILLO 7SSE    N/A     58  40  49 NW9       30.25R
AMHERST 1NE      N/A     60  38  44 W12       30.25S
BOOTLEG 11WNW    N/A     59  34  38 W15       30.29S
CANADIAN 6E      N/A     56  43  62 W10       30.14S
CAPROCK CYN SP   N/A     61  40  45 W14       30.20S
CHILDRESS 2NNE   N/A     58  44  59 W12       30.16S
CLARENDON 2WSW   N/A     60  42  52 NW14      30.20S
DIMMITT 2NE      N/A     56  38  50 W13       30.25S
FLOYDADA 2NNE    N/A     54  42  66 W9        30.22S
FRIONA 2NE       N/A     56  42  57 W10       30.26S
GOODLETT 3W      N/A     57  46  68 W10       30.14S
HART 3N          N/A     55  40  55 W10       30.25R
HEREFORD 2NW     N/A     57  38  48 W9        30.27R
MCLEAN 1E        N/A     59  42  51 NW10      30.18R
MEMPHIS 1NE      N/A     64  43  47 W12       30.16S
MULESHOE 2SSW    N/A     55  38  51 W8        30.26S
OLTON 6S         N/A     52  39  60 W9        30.25S
PALO DURO SP     N/A     59  42  53 NW7       30.25R
PAMPA 2E         N/A     56  41  55 W9        30.20S
PLAINVIEW 1S     N/A     57  40  53 W9        30.24R
SILVERTON 7ESE   N/A     57  41  55 W13       30.21R
TULIA 2ENE       N/A     56  43  62 W9        30.24S
TURKEY 2WSW      N/A     64  41  42 W10       30.19S
UMBARGER 3NNE    N/A     55  41  58 W8        30.25R
$$

TXZ033>036-039>041-045>048-041500
TEXAS TECH WEST TEXAS MESONET/SOUTH PLAINS

CITY           SKY/WX    TMP DP  RH WIND       PRES   REMARKS
AIKEN 3WSW       N/A     58  41  53 W12       30.24S
ANDREWS 2NE      N/A     62  46  55 W5        30.26R
ANTON 6SSW       N/A     55  39  54 NW10      30.24F
BROWNFIELD 2S    N/A     56  44  64 NW7       30.25S
DENVR CTY 7WNW   N/A     57  42  55 W8        30.26R
GAIL 2ESE        N/A     60  48  65 N1        30.21S
LAMESA 2SE       N/A     58  47  67 NW8       30.24R
LEVELLAND 4S     N/A     57  42  57 NW7       30.25S
LUBBOCK 3WNW     N/A     56  39  52 NW9       30.24S
MORTON 1ENE      N/A     56  37  49 W10       30.26R
ODONNELL 1N      N/A     58  44  60 NW10      30.23S
PLAINS 3N        N/A     59  42  52 W8        30.26S
RALLS 1SE        N/A     55  43  63 NW9       30.24R
REESE CENTER     N/A     55  40  56 NW12      30.24F
SEAGRAVES 1SW    N/A     57  47  68 W7        30.25S
SEMINOLE 2NNE    N/A     60  45  57 W7        30.24S
SLATON 2NE       N/A     56  41  58 NW6       30.23S
SNYDER 3E        N/A     60  47  64 NW9       30.20R
SUNDOWN 8SW      N/A     59  42  54 NW7       30.25R
TAHOKA 3NNE      N/A     59  44  55 W10       30.23S
WOLFFORTH 6SSW   N/A     56  41  57 NW10      30.24S
$$

TXZ031-032-036>038-042>044-041500-
TEXAS TECH WEST TEXAS MESONET/ROLLING PLAINS

CITY           SKY/WX    TMP DP  RH WIND       PRES   REMARKS
ASPERMONT 3NE    N/A     58  49  73 W6        30.18R
FLUVANNA 3WNW    N/A     61  42  49 N8        30.21R
GRAHAM 5SSW      N/A     57  44  62 NW13      30.22S
GUTHRIE 10WSW    N/A     62  44  51 NW5       30.17S
HASKELL 1NW      N/A     60  46  59 NW10      30.16R
JAYTON 1SSE      N/A     53  47  81 W6        30.18S
KNOX CITY 3NW    N/A     59  50  71 W5        30.16S
LK A HENRY 1NW   N/A     58  45  62 NW8       30.21R
NORTHFIELD 1S    N/A     56  44  64 W7        30.18S
ODELL 4ENE       N/A     56  48  72 NW9       30.14S
PADUCAH 10SW     N/A     61  44  53 W12       30.17S
POST 1NE         N/A     62  43  48 NW7       30.21S
RRING SPRGS 3N   N/A     60  47  62 W9        30.20R
SEYMOUR 3NW      N/A     58  50  73 NW9       30.14S
SPUR 1W          N/A     58  45  62 NW9       30.20R
WEINERT 2NNE     N/A     58  49  72 NW6       30.16R
WHITE RVR 6NE    N/A     59  41  51 NW13      30.21R
$$

TXZ052-054-060>062-072-078-127-140-154-169-041500-
TEXAS TECH WEST TEXAS MESONET/PERMIAN BASIN/
CONCHO VALLEY/BIG COUNTRY/EDWARDS PLATEAU

CITY           SKY/WX    TMP DP  RH WIND       PRES   REMARKS
COYANOSA 2N      N/A     59  47  63 NW6       30.25R
JUNCTION 1SSW    N/A     59  49  69 S2        30.18S
MERTZON 3NNE     N/A     63  52  67 N5        30.21R
SAN ANGELO 7NW   N/A     59  51  75 W5        30.19S
STRLNG CT 4WSW   N/A     57  52  84 W3        30.22S
ST LAWRNCE 5SW   N/A     56  49  76 NW10      30.22R
SWEETWATR 11SW   N/A     56  52  86 W6        30.21S
WALL 1E          N/A     59  51  76 W7        30.20S
$$

TXZ055-058-074-075-080-082-041500-
TEXAS TECH WEST TEXAS MESONET/FAR WEST/SOUTHWEST MOUNTAINS/TRANS PECOS

CITY           SKY/WX    TMP DP  RH WIND       PRES   REMARKS
PRSMN GAP BBNP   N/A     65  50  57 NE14      30.23R
GUADLPE MTN NP   N/A     60  29  30 NE12      30.34R
$$




USA.gov is the U.S. government's official web portal to all federal, state and local government web resources and services.